Вернуться в каталог

ATLAS 5 CENTAUR DEB

АктивенHEO
NORAD 46485·DEBRIS·🇺🇸 United States

Запущен Oct 17, 2018 с Cape Canaveral Space Force Station

Loading…

Ближайшие Пролёты (ближайшие 24 часа)

TLE

СвежийSource: Space-Track

Эпоха: Sep 13, 2026, 11:01 UTC

1 46485U 18079BY  26256.45928662 -.00000130  00000-0  00000-0 0  9990
2 46485  13.3893 335.4077 4406926  82.4553 323.8500  2.01579773 35632

Отслеживайте ATLAS 5 CENTAUR DEB в реальном времени с AllMySat

Download on the App Store